Location: Unspecified
(56.5167°N, 0.0000°E)
Time: 05:27:39
(UTC+02:00)

Resurs 1-4 Rocket - Pass Details

Date: 23 January 2018
Orbit: 799 x 814 km, 98.5° (Epoch: 20 May)

Event Time Altitude Azimuth Distance (km) Brightness Sun altitude
Rises 04:39:23 0° 13° (NNE) 3,336 5.7 -36.8°
Reaches altitude 10° 04:41:53 10° 5° (N) 2,403 4.8 -36.5°
Enters shadow 04:42:12 12° 4° (N) 2,291 4.7 -36.4°
